STARLINK-32304, 60738

Orbit data source: Space-Track

STARLINK-32304, 60738 is a payload satellite owned by SpaceX/Seattle (US) in LEO that was launched on Wed, 28 Aug 2024 UTC via an FALCON 9 launch vehicle from the Air Force Eastern Test Range (AFETR). Payload-class satellites include a variety of spacecraft equipped with specific instruments for various scientific and technological missions. These include communications satellites like Starlink; space stations such as the ISS; scientific satellites like the Hubble; Earth observation satellites from companies like Planet Labs, Umbra, and HawkEye 360; GPS; miniature CubeSats for education and research; and military/defense satellites.

Loading next visibility...
Identifier
60738, 2024-152U
Orbit
LEO
Last TLE update
5 hours ago
Origin
Manufacturer
SpaceX/Seattle
Mission
Operational Commercial Communications
Bus & Motor
STARLINK V2M, Unknown motor
Mass
730 kg wet, ~700 kg dry
Launch date (UTC)
2024-08-28 (8 months ago)
Launch vehicle
FALCON 9
Launch site
Air Force Eastern Test Range (AFETR)
Object type
Payload
Rocket body
Debris
Shape & HBR
Box + 2 Pan, 29 m
Radar Cross Section
36.964 m², Large (>1 m²)

Expand to show TLE details & history

TLE from 5 hours ago
0 STARLINK-32304
1 60738U 24152U   25129.49142680 -.00000541  00000-0 -61390-5 0  9997
2 60738  53.1604 241.6193 0001406 108.1719 251.9435 15.30192046 40250
Epoch: 2025-05-09T11:47Z
Definitive object data (Epoch: 2025-05-09T11:47:39.275Z)
Latitude
-0.00002°
Longitude
-162.84116°
Altitude
476.437 km
Speed
7.629 km/s
True Right ascension
16h 06m 28s
True Declination
0° 00' 00"
Sunlit
Object was in full shadow at TLE epoch
Visualization TLE readout
Latitude
12.4733°
Longitude
-154.27875°
Altitude
475.428 km
Speed
7.63 km/s
Apparent Right ascension
15h 02m 36s
Apparent Declination
-14° 24' 08"
Sunlit
Object is in full shadow
Visualization observer readout
Local Sidereal Time
00:44:22
Azimuth
300.302° NW
Elevation
-50.481°
Doppler factor
1
Orbital elements
Apogee altitude
476.459 km
Perigee altitude
474.532 km
Semi-major axis
6,853.632 km
Eccentricity
0.0001406
Inclination
53.1604°
RAAN
241.6193°
Arg. of periapsis
108.1719°
True anomaly
251.92818°
Mean anomaly
251.9435°
Eccentric anomaly
251.93584°
Mean motion
3.82527 °/min
BSTAR
-0.000006139
Orbital period
94.11 mins
Loading maneuver chart data...
Loading SW <> Apogee altitude chart data...
Loading historical data...
Loading historical data...
Loading historical data...
Loading historical data...
Loading historical data...
Loading historical data...
Loading historical data...

STARLINK-32304 Visibility forecast

Observer location: undefined°, undefined°

Span
Click to sort rows by Start time (UTC) header in descending order
Start Az.
Max El. time (UTC)
Max El. Az.
Max El.
End time (UTC)
End Az.
7 mins2025-05-09 16:58:52.770Z315.015° NNW2025-05-09 17:01:52.770Z353.914° N40.481°2025-05-09 17:05:52.770Z121.246° SE
5 mins2025-05-10 09:55:52.770Z214.424° SW2025-05-10 09:57:52.770Z126.297° SE42.77°2025-05-10 10:00:52.770Z55.704° ENE
|